Staples, MN

2:58 PM CDT on July 26, 2017 (GMT -0500)
Staples Municipal

Weather History for KSAZ - January, 2014

Change the Weather History Date:

Friday, January 10, 2014

  Actual Average Record
Temperature  
Mean Temperature 22 °F -  
Max Temperature 26 °F 15 °F 48 °F (2012)
Min Temperature 17 °F 0 °F -23 °F (2016)
Degree Days  
Heating Degree Days 44    
Moisture  
Dew Point 22 °F    
Average Humidity 98    
Maximum Humidity 100    
Minimum Humidity 93    
Precipitation  
Precipitation 0.00 in - - ()
Sea Level Pressure  
Sea Level Pressure 29.56 in    
Wind  
Wind Speed 9 mph (SSE)    
Max Wind Speed 16 mph    
Max Gust Speed 22 mph    
Visibility 2 miles    
Events Fog , Snow    
Averages and records for this station are not official NWS values.
T = Trace of Precipitation, MM = Missing Value Source: NWS Daily Summary

Daily Weather History Graph

Daily Weather History Graph

Search for Another Location

Airport or City:

Trip Planner

Search our weather history database for the weather conditions in past years. The results will help you decide how hot, cold, wet, or windy it might be!

Date:

Astronomy

Jan. 10, 2014 Rise Set
Actual Time 8:00 AM CST 4:53 PM CST
Civil Twilight 7:26 AM CST 5:27 PM CST
Nautical Twilight 6:49 AM CST 6:04 PM CST
Astronomical Twilight 6:12 AM CST 6:41 PM CST
Moon 1:02 PM CST (1/10) 3:03 AM CST (1/10)
Length of Visible Light 10h 00m
Length of Day
8h 52m
Waxing Gibbous, 75% of the Moon is Illuminated
Jan 10
Waxing Gibbous
Jan 15
Full
Jan 23
Last Quarter
Jan 30
New
Feb 6
First Quarter

Hourly Weather History & Observations

Time (CST) Temp. Windchill Dew Point Humidity Pressure Visibility Wind Dir Wind Speed Gust Speed Precip Events Conditions
2:01 AM 17.6 °F 3.7 °F 15.8 °F 93% 29.70 in 5.0 mi SSE 13.8 mph 18.4 mph N/A   Overcast
2:14 AM 17.6 °F 3.7 °F 15.8 °F 93% 29.71 in 5.0 mi South 13.8 mph 19.6 mph N/A   Overcast
2:34 AM 17.6 °F 5.0 °F 15.8 °F 93% 29.71 in 5.0 mi SSE 11.5 mph 17.3 mph N/A   Overcast
2:53 AM 17.6 °F 2.7 °F 15.8 °F 93% 29.71 in 5.0 mi South 16.1 mph 21.9 mph N/A   Overcast
3:14 AM 17.6 °F 2.7 °F 15.8 °F 93% 29.70 in 5.0 mi South 16.1 mph 21.9 mph N/A   Overcast
3:34 AM 17.6 °F 3.7 °F 17.6 °F 100% 29.69 in 4.0 mi South 13.8 mph 20.7 mph N/A   Overcast
3:53 AM 19.4 °F 6.0 °F 17.6 °F 93% 29.68 in 3.0 mi South 13.8 mph - N/A   Overcast
4:14 AM 19.4 °F 7.2 °F 17.6 °F 93% 29.67 in 3.0 mi SSE 11.5 mph - N/A   Overcast
4:34 AM 19.4 °F 6.6 °F 17.6 °F 93% 29.67 in 3.0 mi SSE 12.7 mph - N/A   Overcast
4:53 AM 19.4 °F 8.6 °F 19.4 °F 100% 29.67 in 2.5 mi SSE 9.2 mph - N/A   Overcast
5:14 AM 19.4 °F 7.2 °F 17.6 °F 93% 29.66 in 2.5 mi SSE 11.5 mph 16.1 mph N/A   Overcast
5:32 AM 19.4 °F 7.9 °F 17.6 °F 93% 29.65 in 2.5 mi SSE 10.4 mph - N/A   Overcast
5:53 AM 19.4 °F 7.2 °F 17.6 °F 93% 29.64 in 2.5 mi SSE 11.5 mph - N/A   Overcast
6:14 AM 19.4 °F 7.9 °F 17.6 °F 93% 29.64 in 2.0 mi SSE 10.4 mph 19.6 mph N/A   Overcast
6:34 AM 19.4 °F 7.9 °F 19.4 °F 100% 29.64 in 2.0 mi SSE 10.4 mph - N/A   Overcast
6:53 AM 19.4 °F 7.9 °F 19.4 °F 100% 29.63 in 1.8 mi SSE 10.4 mph - N/A   Overcast
7:14 AM 19.4 °F 9.5 °F 19.4 °F 100% 29.63 in 1.8 mi SSE 8.1 mph - N/A   Overcast
7:34 AM 19.4 °F 11.5 °F 19.4 °F 100% 29.62 in 1.8 mi SE 5.8 mph - N/A   Overcast
7:53 AM 19.4 °F 11.5 °F 17.6 °F 93% 29.62 in 1.8 mi SE 5.8 mph - N/A   Overcast
8:14 AM 19.4 °F 11.5 °F 19.4 °F 100% 29.62 in 1.8 mi SE 5.8 mph - N/A   Overcast
8:34 AM 19.4 °F 10.4 °F 19.4 °F 100% 29.62 in 1.0 mi SE 6.9 mph - N/A   Overcast
8:53 AM 19.4 °F 12.8 °F 19.4 °F 100% 29.62 in 0.8 mi SE 4.6 mph - N/A   Overcast
9:14 AM 19.4 °F 10.4 °F 19.4 °F 100% 29.62 in 1.0 mi SE 6.9 mph - N/A   Overcast
9:34 AM 19.4 °F 11.5 °F 19.4 °F 100% 29.61 in 0.8 mi SSE 5.8 mph - N/A   Overcast
9:53 AM 19.4 °F 9.5 °F 19.4 °F 100% 29.61 in 0.8 mi SSE 8.1 mph - N/A   Overcast
10:13 AM 21.2 °F 12.6 °F 19.4 °F 93% 29.61 in 0.8 mi SSE 6.9 mph - N/A   Overcast
10:34 AM 21.2 °F 12.6 °F 21.2 °F 100% 29.60 in 0.8 mi SSE 6.9 mph - N/A Snow Light Snow
10:53 AM 21.2 °F 12.6 °F 21.2 °F 100% 29.60 in 0.5 mi SSE 6.9 mph - N/A Snow Light Snow
11:13 AM 21.2 °F 13.6 °F 21.2 °F 100% 29.59 in 0.8 mi SSE 5.8 mph - N/A Snow Light Snow
11:34 AM 21.2 °F 13.6 °F 21.2 °F 100% 29.58 in 1.0 mi SSE 5.8 mph - N/A   Overcast
11:53 AM 23.0 °F 14.7 °F 21.2 °F 93% 29.57 in 1.0 mi SSE 6.9 mph - N/A   Overcast
12:13 PM 23.0 °F 15.8 °F 23.0 °F 100% 29.56 in 1.0 mi SSE 5.8 mph - N/A   Overcast
12:34 PM 23.0 °F 14.7 °F 23.0 °F 100% 29.55 in 1.0 mi South 6.9 mph - N/A   Overcast
12:54 PM 24.8 °F 17.9 °F 23.0 °F 93% 29.54 in 1.0 mi SSE 5.8 mph - N/A   Overcast
1:13 PM 24.8 °F 17.9 °F 24.8 °F 100% 29.54 in 1.0 mi South 5.8 mph - N/A   Overcast
1:34 PM 24.8 °F 16.1 °F 24.8 °F 100% 29.53 in 0.8 mi South 8.1 mph - N/A   Overcast
1:53 PM 24.8 °F 16.1 °F 24.8 °F 100% 29.52 in 0.8 mi South 8.1 mph - N/A   Overcast
2:14 PM 24.8 °F 16.1 °F 24.8 °F 100% 29.51 in 0.5 mi South 8.1 mph - N/A Fog Light Freezing Fog
2:33 PM 24.8 °F 16.9 °F 24.8 °F 100% 29.50 in 0.8 mi South 6.9 mph - N/A   Overcast
2:53 PM 24.8 °F 16.9 °F 24.8 °F 100% 29.50 in 0.5 mi South 6.9 mph - N/A Fog Light Freezing Fog
3:14 PM 24.8 °F 16.9 °F 24.8 °F 100% 29.51 in 0.5 mi South 6.9 mph - N/A Fog Light Freezing Fog
3:33 PM 24.8 °F 19.1 °F 24.8 °F 100% 29.51 in 0.5 mi South 4.6 mph - N/A Fog Light Freezing Fog
3:53 PM 24.8 °F 19.1 °F 24.8 °F 100% 29.50 in 0.8 mi SSE 4.6 mph - N/A   Overcast
4:14 PM 24.8 °F 17.9 °F 24.8 °F 100% 29.50 in 0.5 mi South 5.8 mph - N/A Fog Light Freezing Fog
4:33 PM 24.8 °F 19.1 °F 24.8 °F 100% 29.50 in 0.5 mi South 4.6 mph - N/A Fog Light Freezing Fog
4:53 PM 24.8 °F 19.1 °F 24.8 °F 100% 29.49 in 0.2 mi South 4.6 mph - N/A Fog Light Freezing Fog
5:14 PM 24.8 °F 17.9 °F 24.8 °F 100% 29.50 in 0.5 mi South 5.8 mph - N/A Fog Light Freezing Fog
5:33 PM 24.8 °F 19.1 °F 24.8 °F 100% 29.50 in 0.5 mi South 4.6 mph - N/A Fog Light Freezing Fog
5:53 PM 24.8 °F 19.1 °F 24.8 °F 100% 29.50 in 0.5 mi South 4.6 mph - N/A Fog Light Freezing Fog
6:14 PM 24.8 °F 19.1 °F 24.8 °F 100% 29.49 in 0.5 mi South 4.6 mph - N/A Fog Light Freezing Fog
6:33 PM 26.6 °F 21.2 °F 26.6 °F 100% 29.49 in 0.5 mi South 4.6 mph - N/A Fog Light Freezing Fog
6:53 PM 26.6 °F 22.6 °F 26.6 °F 100% 29.48 in 0.5 mi South 3.5 mph - N/A Fog Light Freezing Fog
7:14 PM 26.6 °F - 26.6 °F 100% 29.48 in 0.5 mi Calm Calm - N/A Fog Light Freezing Fog
7:33 PM 26.6 °F - 26.6 °F 100% 29.47 in 0.5 mi Calm Calm - N/A Fog Light Freezing Fog
7:53 PM 26.6 °F - 26.6 °F 100% 29.47 in 0.5 mi Calm Calm - N/A Fog Light Freezing Fog
8:14 PM 26.6 °F - 26.6 °F 100% 29.47 in 0.5 mi Calm Calm - N/A Fog Light Freezing Fog
8:33 PM 26.6 °F - 26.6 °F 100% 29.47 in 0.8 mi Calm Calm - N/A   Overcast
8:53 PM 26.6 °F - 26.6 °F 100% 29.46 in 1.5 mi Calm Calm - N/A   Overcast
9:14 PM 26.6 °F - 26.6 °F 100% 29.45 in 2.5 mi Calm Calm - N/A   Overcast
9:33 PM 26.6 °F - 26.6 °F 100% 29.46 in 3.0 mi Calm Calm - N/A   Overcast
9:54 PM 26.6 °F 22.6 °F 26.6 °F 100% 29.46 in 3.0 mi West 3.5 mph - N/A   Overcast
10:13 PM 26.6 °F - 26.6 °F 100% 29.45 in 4.0 mi Calm Calm - N/A   Overcast
10:33 PM 26.6 °F 22.6 °F 26.6 °F 100% 29.45 in 4.0 mi West 3.5 mph - N/A   Overcast
10:53 PM 26.6 °F - 26.6 °F 100% 29.45 in 4.0 mi Calm Calm - N/A   Overcast
11:14 PM 24.8 °F 20.5 °F 24.8 °F 100% 29.44 in 4.0 mi West 3.5 mph - N/A   Overcast
11:33 PM 24.8 °F 20.5 °F 24.8 °F 100% 29.44 in 3.0 mi West 3.5 mph - N/A   Overcast
11:53 PM 24.8 °F 20.5 °F 24.8 °F 100% 29.45 in 3.0 mi WSW 3.5 mph - N/A   Overcast